Tracking 33877 objects as of 19-Apr-2026
HD Live streaming from Space Station
objects crossing your sky now

COSMOS 1275 DEB

Track COSMOS 1275 DEB now!
10-day predictions


NORAD ID: 13473
Int'l Code: 1981-053FV
Perigee: 785.1 km
Apogee: 841.5 km
Inclination: 82.8 °
Period: 101.0 minutes
Semi major axis: 7184 km
RCS: 0.033 m2 (small)
Launch date: June 4, 1981
Source: Commonwealth of Independent States (former USSR) (CIS)
Launch site: PLESETSK MISSILE AND SPACE COMPLEX (PKMTR)

Note: This is SATELLITE DEBRIS
Your satellite tracking list
Your tracking list is empty




NASA's NSSDC Master Catalog

Two Line Element Set (TLE):
1 13473U 81053FV  26108.20112062  .00001973  00000-0  81847-3 0  9997
2 13473  82.8341  22.4610 0039280 224.2400 288.9222 14.25696931239280
Source of the keplerian elements: AFSPC